iso_date,epoch_date,Year,Hour,Min,DOY,POS_DOY,Lat,Lon,BP,Ts,Ta,has_bp,has_ts,has_ta,BuoyID,Buoy_Type,Buoy_Owner,Logistics,Hemisphere
2012-03-01T00:00:00Z,1330560000,2012,0,0,61.0,61.0,-74.7352,170.7028,994.6,-4.9,-999.0,yes,yes,no,300234010428170,SVP-BC,unknown,unknown,South
2012-03-01T01:00:28Z,1330563629,2012,1,0,61.042,61.042,-74.7326,170.7152,994.3,-4.4,-999.0,yes,yes,no,300234010428170,SVP-BC,unknown,unknown,South
2012-03-01T01:59:31Z,1330567171,2012,2,0,61.083,61.083,-74.7328,170.726,994.3,-4.1,-999.0,yes,yes,no,300234010428170,SVP-BC,unknown,unknown,South
2012-03-01T03:00:00Z,1330570800,2012,3,0,61.125,61.125,-74.7326,170.744,993.7,-3.9,-999.0,yes,yes,no,300234010428170,SVP-BC,unknown,unknown,South
2012-03-01T04:00:28Z,1330574429,2012,4,0,61.167,61.167,-74.7364,170.7596,993.9,-3.7,-999.0,yes,yes,no,300234010428170,SVP-BC,unknown,unknown,South
2012-03-01T04:59:31Z,1330577971,2012,5,0,61.208,61.208,-74.739,170.7814,993.7,-3.6,-999.0,yes,yes,no,300234010428170,SVP-BC,unknown,unknown,South
2012-03-01T06:00:00Z,1330581600,2012,6,0,61.25,61.25,-74.7398,170.8182,993.9,-3.5,-999.0,yes,yes,no,300234010428170,SVP-BC,unknown,unknown,South
2012-03-01T07:00:28Z,1330585229,2012,7,0,61.292,61.292,-74.7356,170.8806,993.4,-3.7,-999.0,yes,yes,no,300234010428170,SVP-BC,unknown,unknown,South
2012-03-01T07:59:31Z,1330588771,2012,8,0,61.333,61.333,-74.7238,170.936,993.0,-3.9,-999.0,yes,yes,no,300234010428170,SVP-BC,unknown,unknown,South
2012-03-01T09:00:00Z,1330592400,2012,9,0,61.375,61.375,-74.707,170.9794,992.8,-4.1,-999.0,yes,yes,no,300234010428170,SVP-BC,unknown,unknown,South
2012-03-01T10:00:28Z,1330596029,2012,10,0,61.417,61.417,-74.6892,171.0082,992.7,-4.3,-999.0,yes,yes,no,300234010428170,SVP-BC,unknown,unknown,South
2012-03-01T10:59:31Z,1330599571,2012,11,0,61.458,61.458,-74.6702,171.0212,992.7,-4.4,-999.0,yes,yes,no,300234010428170,SVP-BC,unknown,unknown,South
2012-03-01T12:00:00Z,1330603200,2012,12,0,61.5,61.5,-74.6522,171.013,992.7,-4.5,-999.0,yes,yes,no,300234010428170,SVP-BC,unknown,unknown,South
2012-03-01T13:00:28Z,1330606829,2012,13,0,61.542,61.542,-74.638,170.9894,993.0,-4.6,-999.0,yes,yes,no,300234010428170,SVP-BC,unknown,unknown,South
2012-03-01T13:59:31Z,1330610371,2012,14,0,61.583,61.583,-74.6282,170.9606,993.2,-4.6,-999.0,yes,yes,no,300234010428170,SVP-BC,unknown,unknown,South
2012-03-01T15:00:00Z,1330614000,2012,15,0,61.625,61.625,-74.622,170.934,993.2,-4.6,-999.0,yes,yes,no,300234010428170,SVP-BC,unknown,unknown,South
2012-03-01T16:00:28Z,1330617629,2012,16,0,61.667,61.667,-74.619,170.915,993.1,-4.7,-999.0,yes,yes,no,300234010428170,SVP-BC,unknown,unknown,South
2012-03-01T16:59:31Z,1330621171,2012,17,0,61.708,61.708,-74.6166,170.9072,992.8,-4.7,-999.0,yes,yes,no,300234010428170,SVP-BC,unknown,unknown,South
2012-03-01T18:00:00Z,1330624800,2012,18,0,61.75,61.75,-74.6118,170.9178,993.2,-4.8,-999.0,yes,yes,no,300234010428170,SVP-BC,unknown,unknown,South
2012-03-01T19:00:28Z,1330628429,2012,19,0,61.792,61.792,-74.604,170.9308,993.3,-4.8,-999.0,yes,yes,no,300234010428170,SVP-BC,unknown,unknown,South
2012-03-01T19:59:31Z,1330631971,2012,20,0,61.833,61.833,-74.5932,170.9444,993.3,-4.9,-999.0,yes,yes,no,300234010428170,SVP-BC,unknown,unknown,South
2012-03-01T21:00:00Z,1330635600,2012,21,0,61.875,61.875,-74.5794,170.9494,993.4,-4.9,-999.0,yes,yes,no,300234010428170,SVP-BC,unknown,unknown,South
2012-03-01T22:00:28Z,1330639229,2012,22,0,61.917,61.917,-74.5652,170.9454,993.5,-4.9,-999.0,yes,yes,no,300234010428170,SVP-BC,unknown,unknown,South
2012-03-01T22:59:31Z,1330642771,2012,23,0,61.958,61.958,-74.5518,170.9342,993.6,-4.9,-999.0,yes,yes,no,300234010428170,SVP-BC,unknown,unknown,South
2012-03-02T00:00:00Z,1330646400,2012,0,0,62.0,62.0,-74.539,170.9098,993.6,-4.9,-999.0,yes,yes,no,300234010428170,SVP-BC,unknown,unknown,South
2012-03-02T01:00:28Z,1330650029,2012,1,0,62.042,62.042,-74.5298,170.8868,993.4,-5.0,-999.0,yes,yes,no,300234010428170,SVP-BC,unknown,unknown,South
2012-03-02T01:59:31Z,1330653571,2012,2,0,62.083,62.083,-74.5242,170.8704,993.4,-5.0,-999.0,yes,yes,no,300234010428170,SVP-BC,unknown,unknown,South
2012-03-02T03:00:00Z,1330657200,2012,3,0,62.125,62.125,-74.521,170.8536,993.3,-4.9,-999.0,yes,yes,no,300234010428170,SVP-BC,unknown,unknown,South
2012-03-02T04:00:28Z,1330660829,2012,4,0,62.167,62.167,-74.521,170.8498,993.2,-4.8,-999.0,yes,yes,no,300234010428170,SVP-BC,unknown,unknown,South
2012-03-02T04:59:31Z,1330664371,2012,5,0,62.208,62.208,-74.5222,170.8612,993.1,-4.7,-999.0,yes,yes,no,300234010428170,SVP-BC,unknown,unknown,South
2012-03-02T06:00:00Z,1330668000,2012,6,0,62.25,62.25,-74.521,170.882,992.9,-4.7,-999.0,yes,yes,no,300234010428170,SVP-BC,unknown,unknown,South
2012-03-02T07:00:28Z,1330671629,2012,7,0,62.292,62.292,-74.5176,170.903,992.8,-4.7,-999.0,yes,yes,no,300234010428170,SVP-BC,unknown,unknown,South
2012-03-02T07:59:31Z,1330675171,2012,8,0,62.333,62.333,-74.512,170.9182,992.9,-4.7,-999.0,yes,yes,no,300234010428170,SVP-BC,unknown,unknown,South
2012-03-02T09:00:00Z,1330678800,2012,9,0,62.375,62.375,-74.503,170.9206,993.1,-4.8,-999.0,yes,yes,no,300234010428170,SVP-BC,unknown,unknown,South
2012-03-02T10:00:28Z,1330682429,2012,10,0,62.417,62.417,-74.4926,170.9094,993.7,-4.8,-999.0,yes,yes,no,300234010428170,SVP-BC,unknown,unknown,South
2012-03-02T10:59:31Z,1330685971,2012,11,0,62.458,62.458,-74.4804,170.8756,993.9,-4.8,-999.0,yes,yes,no,300234010428170,SVP-BC,unknown,unknown,South
2012-03-02T12:00:00Z,1330689600,2012,12,0,62.5,62.5,-74.4668,170.8202,994.5,-4.7,-999.0,yes,yes,no,300234010428170,SVP-BC,unknown,unknown,South
2012-03-02T13:00:28Z,1330693229,2012,13,0,62.542,62.542,-74.4524,170.7598,995.2,-4.7,-999.0,yes,yes,no,300234010428170,SVP-BC,unknown,unknown,South
2012-03-02T13:59:31Z,1330696771,2012,14,0,62.583,62.583,-74.4402,170.7106,995.9,-4.6,-999.0,yes,yes,no,300234010428170,SVP-BC,unknown,unknown,South
2012-03-02T15:00:00Z,1330700400,2012,15,0,62.625,62.625,-74.43,170.6716,996.5,-4.7,-999.0,yes,yes,no,300234010428170,SVP-BC,unknown,unknown,South
2012-03-02T16:00:28Z,1330704029,2012,16,0,62.667,62.667,-74.4228,170.6422,996.7,-4.8,-999.0,yes,yes,no,300234010428170,SVP-BC,unknown,unknown,South
2012-03-02T16:59:31Z,1330707571,2012,17,0,62.708,62.708,-74.4186,170.6236,996.8,-4.8,-999.0,yes,yes,no,300234010428170,SVP-BC,unknown,unknown,South
2012-03-02T18:00:00Z,1330711200,2012,18,0,62.75,62.75,-74.4136,170.6168,997.0,-4.8,-999.0,yes,yes,no,300234010428170,SVP-BC,unknown,unknown,South
2012-03-02T19:00:28Z,1330714829,2012,19,0,62.792,62.792,-74.409,170.6162,997.1,-4.8,-999.0,yes,yes,no,300234010428170,SVP-BC,unknown,unknown,South
2012-03-02T19:59:31Z,1330718371,2012,20,0,62.833,62.833,-74.4046,170.617,997.2,-4.8,-999.0,yes,yes,no,300234010428170,SVP-BC,unknown,unknown,South
2012-03-02T21:00:00Z,1330722000,2012,21,0,62.875,62.875,-74.4008,170.614,997.2,-4.8,-999.0,yes,yes,no,300234010428170,SVP-BC,unknown,unknown,South
2012-03-02T22:00:28Z,1330725629,2012,22,0,62.917,62.917,-74.3978,170.6076,997.3,-4.8,-999.0,yes,yes,no,300234010428170,SVP-BC,unknown,unknown,South
2012-03-02T22:59:31Z,1330729171,2012,23,0,62.958,62.958,-74.394,170.6008,997.1,-4.8,-999.0,yes,yes,no,300234010428170,SVP-BC,unknown,unknown,South
2012-03-03T00:00:00Z,1330732800,2012,0,0,63.0,63.0,-74.387,170.5938,996.8,-4.7,-999.0,yes,yes,no,300234010428170,SVP-BC,unknown,unknown,South
2012-03-03T01:00:28Z,1330736429,2012,1,0,63.042,63.042,-74.38,170.5794,996.4,-4.6,-999.0,yes,yes,no,300234010428170,SVP-BC,unknown,unknown,South
2012-03-03T01:59:31Z,1330739971,2012,2,0,63.083,63.083,-74.3742,170.5626,996.3,-4.5,-999.0,yes,yes,no,300234010428170,SVP-BC,unknown,unknown,South
2012-03-03T03:00:00Z,1330743600,2012,3,0,63.125,63.125,-74.3696,170.5456,996.0,-4.4,-999.0,yes,yes,no,300234010428170,SVP-BC,unknown,unknown,South
2012-03-03T04:00:28Z,1330747229,2012,4,0,63.167,63.167,-74.3674,170.526,995.9,-4.4,-999.0,yes,yes,no,300234010428170,SVP-BC,unknown,unknown,South
2012-03-03T04:59:31Z,1330750771,2012,5,0,63.208,63.208,-74.3664,170.5058,995.6,-4.5,-999.0,yes,yes,no,300234010428170,SVP-BC,unknown,unknown,South
2012-03-03T06:00:00Z,1330754400,2012,6,0,63.25,63.25,-74.3678,170.4904,995.3,-4.6,-999.0,yes,yes,no,300234010428170,SVP-BC,unknown,unknown,South
2012-03-03T07:00:28Z,1330758029,2012,7,0,63.292,63.292,-74.3684,170.4792,995.1,-4.7,-999.0,yes,yes,no,300234010428170,SVP-BC,unknown,unknown,South
2012-03-03T07:59:31Z,1330761571,2012,8,0,63.333,63.333,-74.367,170.4714,994.9,-4.8,-999.0,yes,yes,no,300234010428170,SVP-BC,unknown,unknown,South
2012-03-03T09:00:00Z,1330765200,2012,9,0,63.375,63.375,-74.366,170.4688,994.8,-4.9,-999.0,yes,yes,no,300234010428170,SVP-BC,unknown,unknown,South
2012-03-03T10:00:28Z,1330768829,2012,10,0,63.417,63.417,-74.363,170.4696,994.6,-5.0,-999.0,yes,yes,no,300234010428170,SVP-BC,unknown,unknown,South
2012-03-03T10:59:31Z,1330772371,2012,11,0,63.458,63.458,-74.3572,170.4742,994.5,-5.0,-999.0,yes,yes,no,300234010428170,SVP-BC,unknown,unknown,South
2012-03-03T12:00:00Z,1330776000,2012,12,0,63.5,63.5,-74.35,170.4834,994.3,-5.1,-999.0,yes,yes,no,300234010428170,SVP-BC,unknown,unknown,South
2012-03-03T13:00:28Z,1330779629,2012,13,0,63.542,63.542,-74.3408,170.486,994.2,-5.1,-999.0,yes,yes,no,300234010428170,SVP-BC,unknown,unknown,South
2012-03-03T13:59:31Z,1330783171,2012,14,0,63.583,63.583,-74.3312,170.485,994.1,-5.2,-999.0,yes,yes,no,300234010428170,SVP-BC,unknown,unknown,South
2012-03-03T15:00:00Z,1330786800,2012,15,0,63.625,63.625,-74.321,170.4776,993.9,-5.2,-999.0,yes,yes,no,300234010428170,SVP-BC,unknown,unknown,South
2012-03-03T16:00:28Z,1330790429,2012,16,0,63.667,63.667,-74.3106,170.4656,994.0,-5.3,-999.0,yes,yes,no,300234010428170,SVP-BC,unknown,unknown,South
2012-03-03T16:59:31Z,1330793971,2012,17,0,63.708,63.708,-74.301,170.455,994.1,-5.4,-999.0,yes,yes,no,300234010428170,SVP-BC,unknown,unknown,South
2012-03-03T18:00:00Z,1330797600,2012,18,0,63.75,63.75,-74.2916,170.4492,993.9,-5.4,-999.0,yes,yes,no,300234010428170,SVP-BC,unknown,unknown,South
2012-03-03T19:00:28Z,1330801229,2012,19,0,63.792,63.792,-74.2808,170.4488,994.1,-5.4,-999.0,yes,yes,no,300234010428170,SVP-BC,unknown,unknown,South
2012-03-03T19:59:31Z,1330804771,2012,20,0,63.833,63.833,-74.2678,170.4482,994.3,-5.4,-999.0,yes,yes,no,300234010428170,SVP-BC,unknown,unknown,South
2012-03-03T21:00:00Z,1330808400,2012,21,0,63.875,63.875,-74.2556,170.4484,994.5,-5.4,-999.0,yes,yes,no,300234010428170,SVP-BC,unknown,unknown,South
2012-03-03T22:00:28Z,1330812029,2012,22,0,63.917,63.917,-74.2448,170.46,994.7,-5.3,-999.0,yes,yes,no,300234010428170,SVP-BC,unknown,unknown,South
2012-03-03T22:59:31Z,1330815571,2012,23,0,63.958,63.958,-74.2342,170.4796,994.7,-5.2,-999.0,yes,yes,no,300234010428170,SVP-BC,unknown,unknown,South
2012-03-04T00:00:00Z,1330819200,2012,0,0,64.0,64.0,-74.2242,170.5052,994.6,-5.1,-999.0,yes,yes,no,300234010428170,SVP-BC,unknown,unknown,South
2012-03-04T01:00:28Z,1330822829,2012,1,0,64.042,64.042,-74.2144,170.5328,994.1,-5.1,-999.0,yes,yes,no,300234010428170,SVP-BC,unknown,unknown,South
2012-03-04T01:59:31Z,1330826371,2012,2,0,64.083,64.083,-74.2058,170.5584,993.6,-5.0,-999.0,yes,yes,no,300234010428170,SVP-BC,unknown,unknown,South
2012-03-04T03:00:00Z,1330830000,2012,3,0,64.125,64.125,-74.1958,170.574,993.7,-4.9,-999.0,yes,yes,no,300234010428170,SVP-BC,unknown,unknown,South
2012-03-04T04:00:28Z,1330833629,2012,4,0,64.167,64.167,-74.186,170.5792,993.7,-4.8,-999.0,yes,yes,no,300234010428170,SVP-BC,unknown,unknown,South
2012-03-04T04:59:31Z,1330837171,2012,5,0,64.208,64.208,-74.1772,170.5764,993.7,-4.7,-999.0,yes,yes,no,300234010428170,SVP-BC,unknown,unknown,South
2012-03-04T06:00:00Z,1330840800,2012,6,0,64.25,64.25,-74.1686,170.571,993.8,-4.7,-999.0,yes,yes,no,300234010428170,SVP-BC,unknown,unknown,South
2012-03-04T07:00:28Z,1330844429,2012,7,0,64.292,64.292,-74.1606,170.5696,994.2,-4.8,-999.0,yes,yes,no,300234010428170,SVP-BC,unknown,unknown,South
2012-03-04T07:59:31Z,1330847971,2012,8,0,64.333,64.333,-74.1536,170.576,994.6,-4.9,-999.0,yes,yes,no,300234010428170,SVP-BC,unknown,unknown,South
2012-03-04T09:00:00Z,1330851600,2012,9,0,64.375,64.375,-74.1474,170.588,994.8,-5.0,-999.0,yes,yes,no,300234010428170,SVP-BC,unknown,unknown,South
2012-03-04T10:00:28Z,1330855229,2012,10,0,64.417,64.417,-74.1416,170.6044,995.1,-5.0,-999.0,yes,yes,no,300234010428170,SVP-BC,unknown,unknown,South
2012-03-04T10:59:31Z,1330858771,2012,11,0,64.458,64.458,-74.136,170.6232,995.1,-5.1,-999.0,yes,yes,no,300234010428170,SVP-BC,unknown,unknown,South
2012-03-04T12:00:00Z,1330862400,2012,12,0,64.5,64.5,-74.1298,170.6436,995.0,-5.1,-999.0,yes,yes,no,300234010428170,SVP-BC,unknown,unknown,South
2012-03-04T13:00:28Z,1330866029,2012,13,0,64.542,64.542,-74.1228,170.6676,994.9,-5.2,-999.0,yes,yes,no,300234010428170,SVP-BC,unknown,unknown,South
2012-03-04T13:59:31Z,1330869571,2012,14,0,64.583,64.583,-74.115,170.6916,994.9,-5.2,-999.0,yes,yes,no,300234010428170,SVP-BC,unknown,unknown,South
2012-03-04T15:00:00Z,1330873200,2012,15,0,64.625,64.625,-74.1058,170.7158,994.9,-5.2,-999.0,yes,yes,no,300234010428170,SVP-BC,unknown,unknown,South
2012-03-04T16:00:28Z,1330876829,2012,16,0,64.667,64.667,-74.0948,170.7396,994.9,-5.3,-999.0,yes,yes,no,300234010428170,SVP-BC,unknown,unknown,South
2012-03-04T16:59:31Z,1330880371,2012,17,0,64.708,64.708,-74.083,170.7614,994.8,-5.4,-999.0,yes,yes,no,300234010428170,SVP-BC,unknown,unknown,South
2012-03-04T18:00:00Z,1330884000,2012,18,0,64.75,64.75,-74.0712,170.7798,994.7,-5.4,-999.0,yes,yes,no,300234010428170,SVP-BC,unknown,unknown,South
2012-03-04T19:00:28Z,1330887629,2012,19,0,64.792,64.792,-74.0598,170.7964,994.9,-5.5,-999.0,yes,yes,no,300234010428170,SVP-BC,unknown,unknown,South
2012-03-04T19:59:31Z,1330891171,2012,20,0,64.833,64.833,-74.0488,170.8112,994.8,-5.5,-999.0,yes,yes,no,300234010428170,SVP-BC,unknown,unknown,South
2012-03-04T21:00:00Z,1330894800,2012,21,0,64.875,64.875,-74.038,170.8246,994.9,-5.4,-999.0,yes,yes,no,300234010428170,SVP-BC,unknown,unknown,South
2012-03-04T22:00:28Z,1330898429,2012,22,0,64.917,64.917,-74.028,170.839,994.9,-5.4,-999.0,yes,yes,no,300234010428170,SVP-BC,unknown,unknown,South
2012-03-04T22:59:31Z,1330901971,2012,23,0,64.958,64.958,-74.018,170.8566,995.2,-5.3,-999.0,yes,yes,no,300234010428170,SVP-BC,unknown,unknown,South
2012-03-05T00:00:00Z,1330905600,2012,0,0,65.0,65.0,-74.0076,170.8758,995.1,-5.3,-999.0,yes,yes,no,300234010428170,SVP-BC,unknown,unknown,South
2012-03-05T01:00:28Z,1330909229,2012,1,0,65.042,65.042,-73.9968,170.8964,994.8,-5.3,-999.0,yes,yes,no,300234010428170,SVP-BC,unknown,unknown,South
2012-03-05T01:59:31Z,1330912771,2012,2,0,65.083,65.083,-73.9866,170.9172,994.8,-5.4,-999.0,yes,yes,no,300234010428170,SVP-BC,unknown,unknown,South
2012-03-05T03:00:00Z,1330916400,2012,3,0,65.125,65.125,-73.9766,170.9368,994.4,-5.4,-999.0,yes,yes,no,300234010428170,SVP-BC,unknown,unknown,South
2012-03-05T04:00:28Z,1330920029,2012,4,0,65.167,65.167,-73.9664,170.9556,994.2,-5.5,-999.0,yes,yes,no,300234010428170,SVP-BC,unknown,unknown,South
2012-03-05T04:59:31Z,1330923571,2012,5,0,65.208,65.208,-73.9556,170.9738,994.0,-5.7,-999.0,yes,yes,no,300234010428170,SVP-BC,unknown,unknown,South
2012-03-05T06:00:00Z,1330927200,2012,6,0,65.25,65.25,-73.9442,170.9908,993.9,-5.9,-999.0,yes,yes,no,300234010428170,SVP-BC,unknown,unknown,South
2012-03-05T07:00:28Z,1330930829,2012,7,0,65.292,65.292,-73.9308,171.008,994.0,-6.1,-999.0,yes,yes,no,300234010428170,SVP-BC,unknown,unknown,South
2012-03-05T07:59:31Z,1330934371,2012,8,0,65.333,65.333,-73.916,171.0222,993.9,-6.2,-999.0,yes,yes,no,300234010428170,SVP-BC,unknown,unknown,South
2012-03-05T09:00:00Z,1330938000,2012,9,0,65.375,65.375,-73.9006,171.0332,993.9,-6.3,-999.0,yes,yes,no,300234010428170,SVP-BC,unknown,unknown,South
2012-03-05T10:00:28Z,1330941629,2012,10,0,65.417,65.417,-73.8846,171.046,994.0,-6.3,-999.0,yes,yes,no,300234010428170,SVP-BC,unknown,unknown,South
2012-03-05T10:59:31Z,1330945171,2012,11,0,65.458,65.458,-73.8666,171.0632,994.1,-6.3,-999.0,yes,yes,no,300234010428170,SVP-BC,unknown,unknown,South
2012-03-05T12:00:00Z,1330948800,2012,12,0,65.5,65.5,-73.8484,171.0816,994.1,-6.3,-999.0,yes,yes,no,300234010428170,SVP-BC,unknown,unknown,South
2012-03-05T13:00:28Z,1330952429,2012,13,0,65.542,65.542,-73.8294,171.101,994.0,-6.3,-999.0,yes,yes,no,300234010428170,SVP-BC,unknown,unknown,South
2012-03-05T13:59:31Z,1330955971,2012,14,0,65.583,65.583,-73.81,171.1242,993.7,-6.3,-999.0,yes,yes,no,300234010428170,SVP-BC,unknown,unknown,South
2012-03-05T15:00:00Z,1330959600,2012,15,0,65.625,65.625,-73.7908,171.1514,993.6,-6.4,-999.0,yes,yes,no,300234010428170,SVP-BC,unknown,unknown,South
2012-03-05T16:00:28Z,1330963229,2012,16,0,65.667,65.667,-73.7694,171.1848,993.8,-6.4,-999.0,yes,yes,no,300234010428170,SVP-BC,unknown,unknown,South
2012-03-05T16:59:31Z,1330966771,2012,17,0,65.708,65.708,-73.7462,171.215,993.6,-6.4,-999.0,yes,yes,no,300234010428170,SVP-BC,unknown,unknown,South
2012-03-05T18:00:00Z,1330970400,2012,18,0,65.75,65.75,-73.7232,171.2516,993.4,-6.4,-999.0,yes,yes,no,300234010428170,SVP-BC,unknown,unknown,South
2012-03-05T19:00:28Z,1330974029,2012,19,0,65.792,65.792,-73.6996,171.2934,993.2,-6.4,-999.0,yes,yes,no,300234010428170,SVP-BC,unknown,unknown,South
2012-03-05T19:59:31Z,1330977571,2012,20,0,65.833,65.833,-73.6768,171.334,993.1,-6.3,-999.0,yes,yes,no,300234010428170,SVP-BC,unknown,unknown,South
2012-03-05T21:00:00Z,1330981200,2012,21,0,65.875,65.875,-73.6544,171.3764,992.9,-6.2,-999.0,yes,yes,no,300234010428170,SVP-BC,unknown,unknown,South
2012-03-05T22:00:28Z,1330984829,2012,22,0,65.917,65.917,-73.6342,171.4158,992.6,-6.1,-999.0,yes,yes,no,300234010428170,SVP-BC,unknown,unknown,South
2012-03-05T22:59:31Z,1330988371,2012,23,0,65.958,65.958,-73.613,171.4624,992.2,-5.9,-999.0,yes,yes,no,300234010428170,SVP-BC,unknown,unknown,South
2012-03-06T00:00:00Z,1330992000,2012,0,0,66.0,66.0,-73.588,171.5108,991.9,-5.8,-999.0,yes,yes,no,300234010428170,SVP-BC,unknown,unknown,South
2012-03-06T01:00:28Z,1330995629,2012,1,0,66.042,66.042,-73.5614,171.5458,991.4,-5.6,-999.0,yes,yes,no,300234010428170,SVP-BC,unknown,unknown,South
2012-03-06T01:59:31Z,1330999171,2012,2,0,66.083,66.083,-73.5394,171.5514,991.1,-5.5,-999.0,yes,yes,no,300234010428170,SVP-BC,unknown,unknown,South
2012-03-06T03:00:00Z,1331002800,2012,3,0,66.125,66.125,-73.523,171.5676,990.6,-5.5,-999.0,yes,yes,no,300234010428170,SVP-BC,unknown,unknown,South
2012-03-06T04:00:28Z,1331006429,2012,4,0,66.167,66.167,-73.5064,171.5844,990.2,-5.5,-999.0,yes,yes,no,300234010428170,SVP-BC,unknown,unknown,South
2012-03-06T04:59:31Z,1331009971,2012,5,0,66.208,66.208,-73.4874,171.5864,989.9,-5.5,-999.0,yes,yes,no,300234010428170,SVP-BC,unknown,unknown,South
2012-03-06T06:00:00Z,1331013600,2012,6,0,66.25,66.25,-73.4734,171.5686,989.5,-5.6,-999.0,yes,yes,no,300234010428170,SVP-BC,unknown,unknown,South
2012-03-06T07:00:28Z,1331017229,2012,7,0,66.292,66.292,-73.463,171.552,988.9,-5.7,-999.0,yes,yes,no,300234010428170,SVP-BC,unknown,unknown,South
2012-03-06T07:59:31Z,1331020771,2012,8,0,66.333,66.333,-73.4546,171.5302,988.5,-5.8,-999.0,yes,yes,no,300234010428170,SVP-BC,unknown,unknown,South
2012-03-06T09:00:00Z,1331024400,2012,9,0,66.375,66.375,-73.4494,171.5062,988.0,-5.8,-999.0,yes,yes,no,300234010428170,SVP-BC,unknown,unknown,South
2012-03-06T10:00:28Z,1331028029,2012,10,0,66.417,66.417,-73.444,171.4914,987.1,-5.9,-999.0,yes,yes,no,300234010428170,SVP-BC,unknown,unknown,South
2012-03-06T10:59:31Z,1331031571,2012,11,0,66.458,66.458,-73.439,171.4836,986.5,-5.9,-999.0,yes,yes,no,300234010428170,SVP-BC,unknown,unknown,South
2012-03-06T12:00:00Z,1331035200,2012,12,0,66.5,66.5,-73.4348,171.474,985.5,-5.8,-999.0,yes,yes,no,300234010428170,SVP-BC,unknown,unknown,South
2012-03-06T13:00:28Z,1331038829,2012,13,0,66.542,66.542,-73.4298,171.4644,984.7,-5.8,-999.0,yes,yes,no,300234010428170,SVP-BC,unknown,unknown,South
2012-03-06T13:59:31Z,1331042371,2012,14,0,66.583,66.583,-73.4242,171.456,983.5,-5.8,-999.0,yes,yes,no,300234010428170,SVP-BC,unknown,unknown,South
2012-03-06T15:00:00Z,1331046000,2012,15,0,66.625,66.625,-73.4184,171.453,982.4,-5.8,-999.0,yes,yes,no,300234010428170,SVP-BC,unknown,unknown,South
2012-03-06T16:00:28Z,1331049629,2012,16,0,66.667,66.667,-73.4102,171.452,981.7,-5.8,-999.0,yes,yes,no,300234010428170,SVP-BC,unknown,unknown,South
2012-03-06T16:59:31Z,1331053171,2012,17,0,66.708,66.708,-73.4,171.45,980.9,-5.8,-999.0,yes,yes,no,300234010428170,SVP-BC,unknown,unknown,South
2012-03-06T18:00:00Z,1331056800,2012,18,0,66.75,66.75,-73.3884,171.444,980.4,-5.7,-999.0,yes,yes,no,300234010428170,SVP-BC,unknown,unknown,South
2012-03-06T19:00:28Z,1331060429,2012,19,0,66.792,66.792,-73.3756,171.4398,979.5,-5.7,-999.0,yes,yes,no,300234010428170,SVP-BC,unknown,unknown,South
2012-03-06T19:59:31Z,1331063971,2012,20,0,66.833,66.833,-73.3622,171.4356,978.9,-5.6,-999.0,yes,yes,no,300234010428170,SVP-BC,unknown,unknown,South
2012-03-06T21:00:00Z,1331067600,2012,21,0,66.875,66.875,-73.3476,171.4362,978.1,-5.4,-999.0,yes,yes,no,300234010428170,SVP-BC,unknown,unknown,South
2012-03-06T22:00:28Z,1331071229,2012,22,0,66.917,66.917,-73.3298,171.4348,977.4,-5.3,-999.0,yes,yes,no,300234010428170,SVP-BC,unknown,unknown,South
2012-03-06T22:59:31Z,1331074771,2012,23,0,66.958,66.958,-73.3078,171.4284,976.8,-5.2,-999.0,yes,yes,no,300234010428170,SVP-BC,unknown,unknown,South
2012-03-07T00:00:00Z,1331078400,2012,0,0,67.0,67.0,-73.2856,171.4198,976.2,-5.1,-999.0,yes,yes,no,300234010428170,SVP-BC,unknown,unknown,South
2012-03-07T01:00:28Z,1331082029,2012,1,0,67.042,67.042,-73.2646,171.411,975.9,-5.0,-999.0,yes,yes,no,300234010428170,SVP-BC,unknown,unknown,South
2012-03-07T01:59:31Z,1331085571,2012,2,0,67.083,67.083,-73.2426,171.4002,975.7,-4.9,-999.0,yes,yes,no,300234010428170,SVP-BC,unknown,unknown,South
2012-03-07T03:00:00Z,1331089200,2012,3,0,67.125,67.125,-73.218,171.3864,975.6,-5.1,-999.0,yes,yes,no,300234010428170,SVP-BC,unknown,unknown,South
2012-03-07T04:00:28Z,1331092829,2012,4,0,67.167,67.167,-73.1936,171.377,975.8,-5.3,-999.0,yes,yes,no,300234010428170,SVP-BC,unknown,unknown,South
2012-03-07T04:59:31Z,1331096371,2012,5,0,67.208,67.208,-73.1704,171.3662,976.2,-5.7,-999.0,yes,yes,no,300234010428170,SVP-BC,unknown,unknown,South
2012-03-07T06:00:00Z,1331100000,2012,6,0,67.25,67.25,-73.1498,171.3582,976.6,-6.0,-999.0,yes,yes,no,300234010428170,SVP-BC,unknown,unknown,South
2012-03-07T07:00:28Z,1331103629,2012,7,0,67.292,67.292,-73.1308,171.3502,977.1,-6.3,-999.0,yes,yes,no,300234010428170,SVP-BC,unknown,unknown,South
2012-03-07T07:59:31Z,1331107171,2012,8,0,67.333,67.333,-73.1146,171.3404,977.8,-6.4,-999.0,yes,yes,no,300234010428170,SVP-BC,unknown,unknown,South
2012-03-07T09:00:00Z,1331110800,2012,9,0,67.375,67.375,-73.1004,171.3356,978.4,-6.3,-999.0,yes,yes,no,300234010428170,SVP-BC,unknown,unknown,South
2012-03-07T10:00:28Z,1331114429,2012,10,0,67.417,67.417,-73.086,171.3344,979.0,-6.4,-999.0,yes,yes,no,300234010428170,SVP-BC,unknown,unknown,South
2012-03-07T10:59:31Z,1331117971,2012,11,0,67.458,67.458,-73.072,171.3294,979.6,-6.4,-999.0,yes,yes,no,300234010428170,SVP-BC,unknown,unknown,South
2012-03-07T12:00:00Z,1331121600,2012,12,0,67.5,67.5,-73.0594,171.3246,980.1,-6.4,-999.0,yes,yes,no,300234010428170,SVP-BC,unknown,unknown,South
2012-03-07T13:00:28Z,1331125229,2012,13,0,67.542,67.542,-73.0466,171.3206,980.7,-6.6,-999.0,yes,yes,no,300234010428170,SVP-BC,unknown,unknown,South
2012-03-07T13:59:31Z,1331128771,2012,14,0,67.583,67.583,-73.0336,171.312,981.1,-6.7,-999.0,yes,yes,no,300234010428170,SVP-BC,unknown,unknown,South
2012-03-07T15:00:00Z,1331132400,2012,15,0,67.625,67.625,-73.0204,171.304,981.6,-6.9,-999.0,yes,yes,no,300234010428170,SVP-BC,unknown,unknown,South
2012-03-07T16:00:28Z,1331136029,2012,16,0,67.667,67.667,-73.0102,171.289,982.0,-7.0,-999.0,yes,yes,no,300234010428170,SVP-BC,unknown,unknown,South
2012-03-07T16:59:31Z,1331139571,2012,17,0,67.708,67.708,-73.0048,171.282,982.4,-6.9,-999.0,yes,yes,no,300234010428170,SVP-BC,unknown,unknown,South